GW3247 Weather Reports


Display with metric or nautical units.
time (UTC)temp
F
wind
direction
speed
MPH
gust
MPH
rain 1hr
in
rain 24hr
in
rain mn
in
humidity
%
barometer
mb
20260505124553 49 2 8.0 12.0 0.00 0.00 0.00 74 1012.2
20260505123109 49 26 9.0 13.0 0.00 0.00 0.00 72 1012.3
20260505121550 49 41 11.0 16.0 0.00 0.00 0.00 74 1012.4
20260505120051 49 359 10.0 15.0 0.00 0.00 0.00 75 1012.2
20260505114610 49 337 10.0 14.0 0.00 0.00 0.00 74 1012.3
20260505113048 49 28 10.0 13.0 0.00 0.00 0.00 74 1012.3
20260505111602 48 354 9.0 13.0 0.00 0.00 0.00 73 1012.3
20260505101546 48 355 9.0 13.0 0.00 0.00 0.00 76 1012.3
20260505100045 48 32 9.0 14.0 0.00 0.00 0.00 77 1012.3
20260505094546 48 24 11.0 14.0 0.00 0.00 0.00 77 1012.2
20260505093041 48 2 9.0 16.0 0.00 0.00 0.00 78 1012.1
20260505091539 48 357 10.0 15.0 0.00 0.00 0.00 78 1012.1
20260505090048 48 4 10.0 14.0 0.00 0.00 0.00 78 1012.0
20260505084539 49 49 11.0 15.0 0.00 0.00 0.00 78 1012.0
20260505083046 49 35 8.0 12.0 0.00 0.00 0.00 77 1011.8
20260505081545 49 16 8.0 12.0 0.00 0.00 0.00 78 1011.9
20260505080041 48 359 8.0 14.0 0.00 0.00 0.00 79 1011.7
20260505074538 48 4 10.0 15.0 0.00 0.00 0.00 79 1011.7
20260505073033 48 3 12.0 16.0 0.00 0.00 0.00 79 1011.7
20260505071537 49 335 11.0 17.0 0.00 0.00 0.00 79 1011.6
20260505070033 48 353 10.0 14.0 0.00 0.00 0.00 75 1011.6
20260505064540 48 25 9.0 14.0 0.00 0.00 0.00 77 1011.5
20260505063024 48 1 12.0 15.0 0.00 0.00 0.00 78 1011.4
20260505061534 48 356 11.0 15.0 0.00 0.00 0.00 80 1011.4
20260505060027 48 352 12.0 15.0 0.00 0.00 0.00 80 1011.6
20260505054521 48 19 13.0 17.0 0.00 0.00 0.00 79 1011.4
20260505053018 48 332 12.0 16.0 0.00 0.00 0.00 80 1011.4
20260505051515 48 358 10.0 15.0 0.00 0.00 0.00 79 1011.4
20260505041513 48 314 6.0 13.0 0.00 0.00 0.00 82 1011.2
20260505040011 48 307 7.0 11.0 0.00 0.00 0.00 81 1011.2
20260505034507 48 344 12.0 17.0 0.00 0.00 0.00 80 1011.1
20260505033005 48 3 12.0 17.0 0.00 0.00 0.00 80 1011.1
20260505031502 48 340 12.0 16.0 0.00 0.00 0.00 81 1011.1
20260505030002 48 350 11.0 15.0 0.00 0.01 0.00 80 1011.1
20260505024601 48 333 10.0 14.0 0.00 0.01 0.00 81 1011.1
20260505023103 48 353 10.0 16.0 0.00 0.01 0.00 81 1011.2
20260505021556 48 349 9.0 12.0 0.00 0.01 0.00 81 1011.4
20260505020053 48 308 8.0 13.0 0.00 0.01 0.00 80 1011.4
20260505014552 48 356 12.0 17.0 0.00 0.03 0.00 80 1011.6
20260505013052 48 329 12.0 16.0 0.00 0.03 0.00 80 1011.5
20260505011549 49 338 11.0 18.0 0.00 0.03 0.00 80 1011.7
20260505010048 49 329 14.0 18.0 0.00 0.03 0.00 79 1011.6
20260505004546 49 357 12.0 18.0 0.00 0.04 0.00 80 1011.7
20260505003044 49 342 14.0 17.0 0.00 0.04 0.00 79 1011.7
20260505001550 49 357 14.0 18.0 0.00 0.04 0.00 79 1011.7
20260505000047 49 357 13.0 17.0 0.00 0.04 0.00 79 1011.8
20260504234543 49 348 13.0 19.0 0.00 0.08 0.00 80 1011.7
20260504233038 50 341 13.0 17.0 0.00 0.08 0.00 79 1011.9
20260504231553 50 356 13.0 17.0 0.00 0.08 0.00 80 1011.7
20260504230033 50 350 13.0 16.0 0.00 0.08 0.00 80 1011.8
20260504224537 50 1 13.0 18.0 0.00 0.17 0.00 80 1012.0
20260504223030 50 344 13.0 16.0 0.00 0.17 0.00 79 1011.8
20260504221530 50 357 13.0 16.0 0.00 0.17 0.00 80 1011.9
20260504220030 50 37 14.0 18.0 0.00 0.17 0.00 80 1011.9
20260504214524 51 350 14.0 17.0 0.00 0.24 0.17 80 1012.0
20260504213023 51 348 12.0 14.0 0.00 0.24 0.17 80 1012.1
20260504211522 51 354 12.0 15.0 0.00 0.24 0.17 80 1012.2
20260504210020 51 332 6.0 13.0 0.00 0.24 0.17 81 1012.1
20260504204520 51 316 5.0 9.0 0.00 0.33 0.17 80 1012.1
20260504203023 51 343 5.0 8.0 0.00 0.33 0.17 80 1012.1
20260504201517 52 339 5.0 8.0 0.00 0.33 0.17 80 1012.1
20260504200014 52 30 6.0 10.0 0.00 0.33 0.17 79 1012.0
20260504194525 53 352 8.0 11.0 0.00 0.33 0.17 78 1011.8
20260504193015 53 342 9.0 12.0 0.00 0.33 0.17 77 1011.7
20260504191509 53 12 9.0 11.0 0.00 0.33 0.17 76 1011.6
20260504190009 53 7 9.0 12.0 0.00 0.33 0.17 75 1011.5
20260504184511 53 341 9.0 13.0 0.00 0.33 0.17 75 1011.3
20260504183007 54 315 11.0 13.0 0.00 0.33 0.17 73 1011.3
20260504181506 54 9 10.0 14.0 0.00 0.33 0.17 72 1011.4
20260504180012 55 309 10.0 14.0 0.00 0.33 0.17 70 1011.3
20260504174505 55 318 10.0 19.0 0.00 0.33 0.17 63 1011.1
20260504173012 56 310 12.0 17.0 0.00 0.33 0.17 57 1011.1
20260504171503 56 308 9.0 15.0 0.00 0.33 0.17 57 1011.1